Veracruz Airport, Mexico

1:09 AM CDT on April 26, 2017 (GMT -0500)
Gen Heriberto Jara International

Weather History for MMVR - October, 2012

Change the Weather History Date:

Sunday, October 14, 2012

  Actual Average Record
Temperature  
Mean Temperature 78 °F -  
Max Temperature 86 °F 84 °F 93 °F (2003)
Min Temperature 71 °F 69 °F 57 °F (2002)
Cooling Degree Days 14    
Growing Degree Days 28 (Base 50)    
Moisture  
Dew Point 70 °F    
Average Humidity 75    
Maximum Humidity 94    
Minimum Humidity 51    
Precipitation  
Precipitation 0.00 in - - ()
Sea Level Pressure  
Sea Level Pressure 29.96 in    
Wind  
Wind Speed 2 mph ()    
Max Wind Speed 10 mph    
Max Gust Speed -    
Visibility 7.0 miles    
Events      
Averages and records for this station are not official NWS values.
T = Trace of Precipitation, MM = Missing Value Source: Averaged Metar Reports

Daily Weather History Graph

Daily Weather History Graph

Search for Another Location

Airport or City:

Trip Planner

Search our weather history database for the weather conditions in past years. The results will help you decide how hot, cold, wet, or windy it might be!

Date:

Astronomy

Oct. 14, 2012 Rise Set
Actual Time 7:18 AM CDT 7:02 PM CDT
Civil Twilight 6:56 AM CDT 7:24 PM CDT
Nautical Twilight 6:31 AM CDT 7:49 PM CDT
Astronomical Twilight 6:05 AM CDT 8:15 PM CDT
Moon 6:21 AM CDT (10/14) 6:24 PM CDT (10/14)
Length of Visible Light 12h 27m
Length of Day
11h 43m
Waning Crescent, 1% of the Moon is Illuminated
Oct 14
Waning Crescent
Oct 15
New
Oct 21
First Quarter
Oct 29
Full
Nov 6
Last Quarter

Hourly Weather History & Observations

Time (CDT) Temp. Heat Index Dew Point Humidity Pressure Visibility Wind Dir Wind Speed Gust Speed Precip Events Conditions
4:46 AM 73.4 °F - 71.6 °F 94% 29.95 in 7.0 mi West 3.5 mph - N/A   Overcast
6:00 AM 73.4 °F - 71.6 °F 94% 29.96 in 7.0 mi Calm Calm - N/A   Overcast
6:47 AM 71.6 °F - 69.8 °F 94% 29.94 in 7.0 mi WSW 3.5 mph - N/A   Clear
7:41 AM 71.6 °F - 69.8 °F 94% 29.97 in 7.0 mi West 3.5 mph - N/A   Clear
8:45 AM 77.0 °F - 73.4 °F 89% 29.99 in 7.0 mi Calm Calm - N/A   Clear
9:42 AM 80.6 °F 84.6 °F 71.6 °F 74% 29.98 in 7.0 mi Calm Calm - N/A   Clear
10:49 AM 82.4 °F 86.3 °F 69.8 °F 66% 30.00 in 7.0 mi SE 4.6 mph - N/A   Scattered Clouds
11:43 AM 84.2 °F 88.4 °F 69.8 °F 62% 30.00 in 7.0 mi Calm Calm - N/A   Partly Cloudy
12:43 PM 84.2 °F 88.4 °F 69.8 °F 62% 29.96 in 7.0 mi Calm Calm - N/A   Scattered Clouds
1:43 PM 86.0 °F 90.4 °F 69.8 °F 58% 29.94 in 7.0 mi Calm Calm - N/A   Scattered Clouds
2:44 PM 86.0 °F 90.4 °F 69.8 °F 58% 29.92 in 7.0 mi SE 6.9 mph - N/A   Partly Cloudy
3:44 PM 84.2 °F 88.4 °F 69.8 °F 62% 29.90 in 7.0 mi ESE 6.9 mph - N/A   Partly Cloudy
4:43 PM 84.2 °F 88.4 °F 69.8 °F 62% 29.91 in 7.0 mi SE 5.8 mph - N/A   Clear
5:48 PM 84.2 °F 85.6 °F 64.4 °F 51% 29.92 in 7.0 mi East 10.4 mph - N/A   Clear
6:51 PM 78.8 °F - 68.0 °F 69% 29.94 in 7.0 mi ESE 4.6 mph - N/A   Clear
7:45 PM 77.0 °F - 71.6 °F 83% 29.94 in 7.0 mi East 5.8 mph - N/A   Clear
8:47 PM 77.0 °F - 71.6 °F 83% 29.96 in 7.0 mi Calm Calm - N/A   Partly Cloudy
9:40 PM 77.0 °F - 69.8 °F 78% 29.97 in 7.0 mi Calm Calm - N/A   Partly Cloudy
10:47 PM 73.4 °F - 69.8 °F 88% 30.00 in 7.0 mi Calm Calm - N/A   Partly Cloudy